TimeEDT,TemperatureF,Dew PointF,Humidity,Sea Level PressureIn,VisibilityMPH,Wind Direction,Wind SpeedMPH,Gust SpeedMPH,PrecipitationIn,Events,Conditions,WindDirDegrees,DateUTC
12:54 AM,44.1,43.0,96,30.17,4.0,NNE,9.2,17.3,N/A,,Overcast,30,2012-10-09 04:54:00
1:54 AM,45.0,43.0,93,30.17,6.0,NNE,11.5,-,N/A,,Overcast,30,2012-10-09 05:54:00
2:54 AM,45.0,43.0,93,30.16,5.0,NNE,6.9,-,N/A,,Overcast,20,2012-10-09 06:54:00
3:54 AM,44.6,42.8,93,30.15,6.0,NNE,8.1,-,N/A,,Overcast,30,2012-10-09 07:54:00
4:54 AM,45.0,43.0,93,30.15,8.0,NNE,9.2,-,N/A,,Overcast,20,2012-10-09 08:54:00
5:54 AM,45.0,43.0,93,30.16,10.0,NNE,5.8,-,N/A,,Overcast,30,2012-10-09 09:54:00
6:54 AM,45.0,43.0,93,30.17,7.0,NNE,6.9,-,N/A,,Overcast,30,2012-10-09 10:54:00
7:54 AM,45.0,44.1,97,30.19,10.0,NNE,6.9,-,N/A,,Overcast,20,2012-10-09 11:54:00
8:54 AM,46.0,44.1,93,30.20,10.0,NNE,6.9,-,N/A,,Overcast,20,2012-10-09 12:54:00
9:54 AM,48.0,44.1,86,30.20,10.0,NNE,5.8,-,N/A,,Overcast,30,2012-10-09 13:54:00
10:02 AM,48.2,44.6,87,30.20,10.0,NE,8.1,-,N/A,,Overcast,40,2012-10-09 14:02:00
10:10 AM,48.2,44.6,87,30.20,10.0,NE,6.9,-,N/A,,Overcast,50,2012-10-09 14:10:00
10:54 AM,50.0,45.0,83,30.19,10.0,NNE,6.9,-,N/A,,Overcast,30,2012-10-09 14:54:00
11:54 AM,53.1,45.0,74,30.18,10.0,NNE,4.6,-,N/A,,Overcast,20,2012-10-09 15:54:00
12:54 PM,55.0,46.9,74,30.16,10.0,Variable,3.5,-,N/A,,Overcast,0,2012-10-09 16:54:00
1:54 PM,57.0,46.9,69,30.12,10.0,Calm,Calm,-,N/A,,Overcast,0,2012-10-09 17:54:00
2:54 PM,55.9,48.0,75,30.12,10.0,Calm,Calm,-,N/A,,Overcast,0,2012-10-09 18:54:00
3:54 PM,57.0,48.9,74,30.10,10.0,SE,3.5,-,N/A,,Overcast,130,2012-10-09 19:54:00
4:54 PM,57.9,48.9,72,30.11,10.0,Calm,Calm,-,N/A,,Overcast,0,2012-10-09 20:54:00
5:18 PM,57.2,48.2,72,30.11,10.0,Calm,Calm,-,N/A,,Overcast,0,2012-10-09 21:18:00
5:54 PM,57.0,50.0,77,30.10,10.0,Calm,Calm,-,N/A,,Overcast,0,2012-10-09 21:54:00
6:54 PM,55.9,51.1,84,30.10,10.0,Calm,Calm,-,N/A,,Overcast,0,2012-10-09 22:54:00
7:54 PM,55.9,51.1,84,30.10,10.0,Calm,Calm,-,N/A,,Overcast,0,2012-10-09 23:54:00
8:54 PM,55.0,52.0,89,30.10,10.0,Calm,Calm,-,N/A,,Overcast,0,2012-10-10 00:54:00
9:54 PM,52.0,50.0,93,30.11,10.0,Calm,Calm,-,N/A,,Partly Cloudy,0,2012-10-10 01:54:00
10:54 PM,51.1,48.9,92,30.11,10.0,Calm,Calm,-,N/A,,Scattered Clouds,0,2012-10-10 02:54:00
11:54 PM,53.1,50.0,89,30.10,10.0,Calm,Calm,-,N/A,,Overcast,0,2012-10-10 03:54:00